Home   Weather   Wood Buffalo   Past weeks

Flag for Canada Past Weather in Wood Buffalo, Alberta, Canada — Yesterday and Last 2 Weeks

Now
-4 °F

Mostly cloudy.


Feels Like: -15 °F
Forecast: -1 / 7 °F
Wind: 5 mph from Northwest

Location: Fort Mcmurray

Current Time: Jan 22, 2017 at 11:51:01 pm

Latest Report: Jan 22, 2017 at 11:21 pm


Visibility: 9 mi

Pressure: 30.19 "Hg

Humidity: 77%

Dew Point: -9 °F

Location of Wood BuffaloLocation

Past Weather in Wood Buffalo — Graph

°F

Wood Buffalo Temperature Yesterday

Maximum temperature yesterday: 23 °F (at 9:00 am)
Minimum temperature yesterday: 10 °F (at 10:00 pm)
Average temperature yesterday: 18 °F

High & Low Weather Summary for the Past Weeks

 TemperatureHumidityPressure
High46 °F (Jan 16, 2:00 pm)100% (Jan 18, 8:00 pm)30.63 "Hg (Jan 18, 8:00 pm)
Low-38 °F (Jan 12, 5:36 am)46% (Jan 16, 2:00 pm)29.15 "Hg (Jan 18, 2:00 pm)
Average7 °F79%29.80 "Hg
* Reported Jan 7 10:00 pm — Jan 22 10:03 pm, Wood Buffalo, Weather by CustomWeather, © 2017

Note: Actual official high and low records may vary slightly from our data, if they occured in-between our weather recording intervals... More about our weather records

Advertising

Wood Buffalo Weather History for the Previous 24 Hours

Scroll right to see more
 ConditionsComfort  
Time TempWeatherWind HumidityBarometerVisibility
10:03 pm
Sun, Jan 22
-4 °FPassing clouds.5 mph84%30.20 "Hg9 mi
9:00 pm-4 °FClear.7 mph84%30.20 "Hg9 mi
8:55 pm-4 °FClear.7 mph84%30.20 "Hg9 mi
8:37 pm-2 °FLight snow. Clear.7 mph84%30.20 "Hg9 mi
8:08 pm-2 °FClear.7 mph84%30.21 "Hg9 mi
7:00 pm-2 °FClear.7 mph84%30.22 "Hg9 mi
6:24 pm0 °FPassing clouds.6 mph84%30.22 "Hg9 mi
6:00 pm0 °FOvercast.7 mph84%30.22 "Hg9 mi
5:00 pm1 °FOvercast.6 mph78%30.22 "Hg9 mi
4:00 pm1 °FOvercast.10 mph85%30.21 "Hg9 mi
3:00 pm3 °FPartly sunny.8 mph78%30.21 "Hg9 mi
2:33 pm3 °FPartly sunny.7 mph78%30.21 "Hg9 mi
2:00 pm3 °FSunny.6 mph78%30.22 "Hg9 mi
1:30 pm3 °FScattered clouds.6 mph78%30.22 "Hg9 mi
1:02 pm3 °FPartly sunny.6 mph78%30.23 "Hg9 mi
12:54 pm3 °FScattered clouds.7 mph78%30.23 "Hg9 mi
12:00 pm3 °FOvercast.6 mph85%30.23 "Hg9 mi
11:00 am3 °FMostly cloudy.7 mph85%30.24 "Hg9 mi
10:00 am3 °FOvercast.7 mph85%30.24 "Hg9 mi
9:12 am5 °FMostly cloudy.7 mph85%30.22 "Hg9 mi
9:02 am5 °FMore clouds than sun.7 mph85%30.22 "Hg9 mi
8:00 am5 °FOvercast.6 mph85%30.21 "Hg9 mi
7:22 am5 °FMostly cloudy.6 mph85%30.20 "Hg9 mi
7:08 am5 °FLight snow. Mostly cloudy.7 mph85%30.20 "Hg9 mi
6:38 am5 °FMostly cloudy.9 mph92%30.20 "Hg9 mi
6:00 am5 °FOvercast.8 mph92%30.20 "Hg9 mi
5:39 am7 °FMostly cloudy.9 mph85%30.20 "Hg9 mi
5:00 am7 °FLight snow. Overcast.8 mph85%30.19 "Hg9 mi
4:00 am7 °FLight snow. Overcast.10 mph92%30.18 "Hg9 mi
3:00 am9 °FLight snow. Overcast.12 mph85%30.17 "Hg9 mi
2:00 am9 °FLight snow. Mostly cloudy.10 mph92%30.15 "Hg9 mi
1:00 am9 °FLight snow. Overcast.12 mph92%30.13 "Hg9 mi
12:00 am10 °FLight snow. Mostly cloudy.10 mph85%30.10 "Hg9 mi
11:00 pm
Sat, Jan 21
10 °FLight snow. Overcast.12 mph92%30.08 "Hg9 mi
Weather by CustomWeather, © 2017

See weather overviewHow to use our weather pages